Regional Weather Roundup
Issued by NWS

Home | Current Version | Previous Version | Text Only | Print | Product List | Glossary On
Versions: 1 2 3 4 5 6 7 8 9 10 11 12 13 14 15 16 17 18 19 20 21 22 23 24 25 26 27 28 29 30 31 32 33 34 35 36 37 38 39 40 41 42 43 44 45 46 47 48 49 50
000
ASHW40 PHFO 131943
RWRHI

WEATHER ROUNDUP FOR HAWAII
NATIONAL WEATHER SERVICE HONOLULU HI
900 AM HST SAT FEB 13 2016

THIS IS AN AUTOMATED REPORT THAT HAS NOT BEEN QUALITY CONTROLLED.

NOTE..."FAIR" INDICATES FEW OR NO CLOUDS BELOW 12,000 FEET WITH NO
SIGNIFICANT WEATHER AND/OR OBSTRUCTIONS TO VISIBILITY.

* - THESE SITES REPORT LIMITED FIELDS

HIZ001>004-132000-
KAUAI-NIIHAU-

CITY           SKY/WX    TMP DP  RH WIND       PRES   REMARKS
LIHUE APT      MOSUNNY   79  70  73 E9        30.12R
PORT ALLEN*      N/A     77 N/A N/A E9          N/A
POIPU*           N/A     72 N/A N/A NE5         N/A
PRINCEVILLE*     N/A     70 N/A N/A SE5         N/A
KOKOLE POINT*  NOT AVBL
MOLOAA DAIRY*    N/A     75  70  83 E7          N/A
WAIMEA HTS*      N/A     82  57  42 E2          N/A
PUU OPAE*        N/A     75  55  50 S3          N/A
PUU LUA*       NOT AVBL
MAKAHA RIDGE*    N/A     75  55  50 S3G9        N/A
$$

HIZ005>011-132000-
OAHU-

CITY           SKY/WX    TMP DP  RH WIND       PRES   REMARKS
HONOLULU       PTSUNNY   78  67  68 NE8       30.09R
KALAELOA       SUNNY     78  66  66 E5        30.10R
KANEOHE MCB    PTSUNNY   77  68  73 E7G18     30.08S
WHEELER FIELD  FAIR      73  66  79 VRB2      30.10R
BELLOWS*         N/A    N/A N/A N/A E15         N/A
KAHUKU*          N/A    N/A N/A N/A VRB10G18    N/A
WHEELER*         N/A    N/A N/A N/A SE6         N/A
WAIANAE HARBOR   N/A    N/A N/A N/A W5          N/A
DILLINGHAM*      N/A     91  82  75 MISG        N/A  HX 114
KAHUKU TRN*      N/A     73  66  78 E9G21       N/A
KAWAILOA*        N/A     72  64  78 E7G14       N/A
KII*             N/A     75  70  83 E16         N/A
MAKUA RANGE*     N/A     82  70  65 SE1         N/A
OAHU FOREST NW   N/A     68  66  94 SW10G22     N/A
SCHOFIELD BRK*   N/A     61  52  72 MISG        N/A
SCHOFIELD S*   NOT AVBL
WAIANAE VLY*   NOT AVBL
KUAOKALA*        N/A     77  64  65 E3G17       N/A
HONOULIUULI*   NOT AVBL
MOKUOLOE IS*   NOT AVBL
PALEHUA*         N/A     70  64  83 E8G18       N/A
WAIAWA PHB*    NOT AVBL
$$

HIZ012>013-132000-
MOLOKAI-

CITY           SKY/WX    TMP DP  RH WIND       PRES   REMARKS
MOLOKAI AIRPT  SUNNY     79  63  57 NE6       30.10R
KALAUPAPA      NOT AVBL
MAKAPULAPAI*     N/A     77  68  73 E17G26      N/A
MOLOKAI 1*     NOT AVBL
PUU ALII*        N/A     58  58 100 NE3G12      N/A
$$

HIZ016-132000-
KAHOOLAWE-

CITY           SKY/WX    TMP DP  RH WIND       PRES   REMARKS
KAHOOLAWE*       N/A     72 N/A N/A E1          N/A
HAKIOAWA*        N/A     73  66  79 MISG      30.48F
HONOKANAIA*      N/A     76  66  71 NE12G25   30.01
KANELOA*         N/A     72  66  83 E20G30    30.13S
KEALIALALO*    NOT AVBL
LUA MAKIKA*    NOT AVBL
$$

HIZ014>015-132000-
LANAI-

CITY           SKY/WX    TMP DP  RH WIND       PRES   REMARKS
LANAI CITY     FAIR      72  65  78 N5        30.14R
LANAI 1*       NOT AVBL
$$

HIZ017>028-132000-
MAUI-

CITY           SKY/WX    TMP DP  RH WIND       PRES   REMARKS
KAHULUI        MOSUNNY   75  65  70 CALM      30.07S
KAPALUA-W MAUI MOSUNNY   75  64  69 CALM      30.09
HANA AIRPORT   NOT AVBL
HANA*            N/A     77 N/A N/A SE8G17      N/A
HALEAKALA SUMM   N/A     57   1  10 SE12G39     N/A
MAALAEA BAY*     N/A     79 N/A N/A E3          N/A
HALEAKALA*     NOT AVBL
KAUPO GAP*       N/A     63  57  82 NE3G21      N/A
KULA 1*          N/A     54  36  50 E1          N/A
$$

HIZ023>026-132000-
BIG ISLAND OF HAWAII COAST AND LOWER SLOPES-

CITY           SKY/WX    TMP DP  RH WIND       PRES   REMARKS
KAILUA KONA    SUNNY     79  60  52 CALM      30.07R
HILO           PTSUNNY   76  65  68 W8        30.13R
HONOKAA*         N/A     75 N/A N/A VRB1        N/A
KAWAIHAE MWT*    N/A     81 N/A N/A S1          N/A
KAWAIHAE*      NOT AVBL
SOUTH POINT*     N/A     73 N/A N/A N16G25      N/A
UPOLU AIRPORT*   N/A    N/A N/A N/A E14G22      N/A
KAMUELA*       NOT AVBL
HAKALAU*         N/A     55  51  87 S7          N/A
KALOKO-HONOKO*   N/A     81  63  54 SW5       30.06S
PALI 2*          N/A     72  57  60 NE14G22     N/A
KEALAKOMO*       N/A     79  64  61 NE14G20     N/A
KAUPULEHU*       N/A     79  55  44 N3          N/A
KAPAPALA*        N/A     70  58  65 VRB5        N/A
LOWER KAHUKU*    N/A     63 -38   1 N3G12       N/A
PUHE CS*         N/A     79  54  41 SE3G10      N/A
PUHO CS*         N/A     79  59  49 NE2         N/A
PTA KEAMUKU*     N/A     66  54  63 CALM        N/A
WAIKOLOA*        N/A     79  57  47 W3G10       N/A
$$

HIZ027>028-132000-
BIG ISLAND OF HAWAII INTERIOR AND SUMMMITS-

CITY           SKY/WX    TMP DP  RH WIND       PRES   REMARKS
BRADSHAW FIELD MOSUNNY   60  47  60 SE17G29   30.34R
MK VISITOR CEN   N/A     55  21  26 SE12        N/A
MAUNA KEA*       N/A     45 -17   7 S10         N/A
MAUNA LOA*       N/A     54 -45   1 MISG        N/A
MAUNA LOA 1*   NOT AVBL
PTA KIPUKA*      N/A    N/A N/A N/A SW6         N/A
PTA RANGE 17*    N/A     59  45  58 SE18G30     N/A
PTA WEST*        N/A     70  46  43 S7G17       N/A
NENE CABIN*      N/A     52  46  82 E10G18      N/A
AHUMOA*          N/A     62  41  46 NW3         N/A
PTA PORTABLE*  NOT AVBL
PUU MALI*        N/A     61  46  59 NE3         N/A
$$

HIC003-132000-
NORTHWEST ISLANDS-

CITY           SKY/WX    TMP DP  RH WIND       PRES   REMARKS
MIDWAY ISLAND  CLOUDY    61  48  63 W16G26    29.97R
MIDWAY NOS*    NOT AVBL
FRENCH FRIGATE NOT AVBL
$$

PHZ110>124-180-132000-
BUOY REPORTS

STATION/POSITION TIME  TEMP    WIND        PRES    WAVE   SWELL
                       AIR SEA DIR/SP/G            HT/PER HT/DIR
                 (UTC) (F)     (DEG/KT/KT) (MB)    (FT/S) (FT/D)
BUOY 51001       1900   75 75  160/ 14/ 16 1018.1R
BUOY 51101       1850   76 75  170/ 14/ 17 1017.7R   4/11   3/340
BUOY 51100       NOT AVBL
BUOY 51002       1850   77 77   90/ 17/ 21 1016.6R  10/ 7   7/330
BUOY 51003       1850   77 78  100/ 16/ 19 1017.7R   7/12   5/330
BUOY 51004       1850   77 77   80/ 21/ 25 1017.5R  10/14   8/330
BARBERS PT BUOY  NOT AVBL
WAIMEA BAY BUOY  1904      77                N/A     5/13   3/330
KAILUA BAY BUOY  1911      77                N/A     5/13   3/360
LANAI BUOY       NOT AVBL
BARBERS PT 2     1903      78                N/A     4/12   2/290
PAUWELA MAUI     1907      76                N/A     7/14   3/350
HILO             1912      77                N/A     8/14   5/350
KANEOHE BAY BUOY 1906      76                N/A     5/12   2/360
HANALEI KAUAI    1901      77                N/A     5/13   3/330
KAHULUI HARBOR   NOT AVBL
HONOLULU HARBOR  1900   77 77  100/  5/  9 1019.5R
KILO NALU        NOT AVBL
HILO HARBOR      1900   75 75  240/  5/  8 1020.0R
MOKUOLOE         1800   76 77   80/  9/ 12 1018.5R
NAWILIWILI       1900   69 78  240/  4/  5 1019.4R
WHOTS BUOY       NOT AVBL
BUOY 51028       NOT AVBL
$$

......................KEY........................................
  SKY/WX - SKY CONDITIONS/PRESENT WEATHER
  TMP    - TEMPERATURE IN FAHRENHEIT
  DWPT   - DEWPOINT IN FAHRENHEIT
  RH     - RELATIVE HUMIDITY IN PERCENT
  WIND   - DIRECTION AND SPEED /MPH FOR ISLANDS...KTS FOR BUOYS/
  PRES   - MEAN SEA LEVEL PRESSURE IN INCHES OF HG
  VSB    - VISIBILITY IN MILES
  HX     - HEAT INDEX
  WCI    - WIND CHILL INDEX
  VRB    - VARIABLE WIND DIRECTION
  N/A    - NOT AVAILABLE



USA.gov is the U.S. government's official web portal to all federal, state and local government web resources and services.